Find Starlink 31187

NORAD ID: 58790 Int'l Des: 2024-012 Owner: SPXS Country: US Constellation: starlink operational
LEOCIRCULAR

Live Position

Loading 3D Globe...

About Starlink 31187

Description loading...

Upcoming Passes

Passes for default location (London). Set your location on the main map for personalized predictions.

Altitude History

Loading altitude history...

Two-Line Element Set

1 58790U 24012D 26132.78058839 .00000306 00000-0 20634-4 0 9998
2 58790 43.0000 163.6595 0001043 267.7952 92.2780 15.27576837131036
Epoch: May 12, 2026 • Age: 12 hours

Current Status

Altitude 486.2 km
Velocity 7.62 km/s
Sub-Earth Point -17.01°S, 162.95°E
Launch Date Jan 15, 2024
Age 2.3 years
Type internet

Technical Details

Classification Payload
Mass 730.00 kg
Dry Mass 700.00 kg
Total Mass 730.00 kg
Length 0.30 m
Diameter 4.10 m
Span 29.00 m
Shape Box + pan
Manufacturer SPXS
Bus Type Starlink V2M
Phase Status In Orbit
Owner/State SPXS/US

Most Searched